When you browse on this site, cookies collect data to enhance your experience and personalize the content and advertising you see.
Visit our Privacy Policy to learn more. By continuing to use the site, you agree to this use of cookies and data.

Hourly Weather Neseta

Today, 10 July, Friday

Time Temperature Precipitation Wind Pressure Humidity
00:00 +12°C° 0 mm 1 mps 749 mmHg 87%
01:00 +12°C° 0 mm 1 mps 749 mmHg 89%
02:00 +12°C° 0 mm 1 mps 750 mmHg 90%
03:00 +12°C° 0 mm 1 mps 749 mmHg 90%
04:00 +12°C° 0 mm 2 mps 749 mmHg 90%
05:00 +12°C° 0 mm 2 mps 749 mmHg 89%
06:00 +13°C° 0 mm 3 mps 749 mmHg 84%
07:00 +15°C° 0 mm 4 mps 749 mmHg 79%
08:00 +17°C° 0 mm 5 mps 749 mmHg 74%
09:00 +17°C° 0 mm 5 mps 749 mmHg 73%
10:00 +19°C° 0 mm 5 mps 749 mmHg 73%
11:00 +19°C° 0 mm 5 mps 748 mmHg 72%
12:00 +20°C° 0 mm 5 mps 748 mmHg 69%
13:00 +22°C° 0 mm 6 mps 747 mmHg 66%
14:00 +23°C° 0 mm 6 mps 747 mmHg 63%
15:00 +23°C° 0.4 mm 5 mps 747 mmHg 69%
16:00 +23°C° 0.4 mm 5 mps 747 mmHg 74%
17:00 +23°C° 0.4 mm 4 mps 747 mmHg 80%
18:00 +22°C° 1.2 mm 4 mps 747 mmHg 83%
19:00 +21°C° 1.2 mm 4 mps 747 mmHg 87%
20:00 +20°C° 1.2 mm 4 mps 747 mmHg 91%
21:00 +20°C° 0.6 mm 4 mps 747 mmHg 92%
22:00 +19°C° 0.6 mm 4 mps 746 mmHg 94%
23:00 +19°C° 0.6 mm 3 mps 746 mmHg 95%

Tomorrow, 11 July, Saturday

Time Temperature Precipitation Wind Pressure Humidity
00:00 +19°C° 0.1 mm 4 mps 747 mmHg 95%
01:00 +19°C° 0.1 mm 4 mps 747 mmHg 96%
02:00 +19°C° 0.1 mm 4 mps 747 mmHg 96%
03:00 +19°C° 0 mm 4 mps 747 mmHg 96%
04:00 +19°C° 0 mm 5 mps 746 mmHg 96%
05:00 +19°C° 0 mm 5 mps 746 mmHg 95%
06:00 +20°C° 0 mm 5 mps 746 mmHg 92%
07:00 +21°C° 0 mm 5 mps 747 mmHg 89%
08:00 +22°C° 0 mm 5 mps 747 mmHg 85%
09:00 +25°C° 0 mm 5 mps 747 mmHg 80%
10:00 +26°C° 0 mm 4 mps 748 mmHg 75%
11:00 +27°C° 0 mm 4 mps 748 mmHg 69%
12:00 +27°C° 1.1 mm 4 mps 748 mmHg 72%
13:00 +27°C° 1.1 mm 4 mps 748 mmHg 75%
14:00 +27°C° 1.1 mm 4 mps 748 mmHg 77%
15:00 +26°C° 0.8 mm 3 mps 748 mmHg 78%
16:00 +26°C° 0.8 mm 3 mps 748 mmHg 78%
17:00 +25°C° 0.8 mm 3 mps 748 mmHg 79%
18:00 +22°C° 0.3 mm 3 mps 748 mmHg 81%
19:00 +20°C° 0.3 mm 3 mps 748 mmHg 84%
20:00 +18°C° 0.3 mm 3 mps 748 mmHg 87%
21:00 +18°C° 0.7 mm 3 mps 749 mmHg 89%
22:00 +17°C° 0.7 mm 3 mps 749 mmHg 90%
23:00 +16°C° 0.7 mm 3 mps 749 mmHg 92%

Day after tomorrow, 12 July, Sunday

Time Temperature Precipitation Wind Pressure Humidity
00:00 +16°C° 0.6 mm 3 mps 749 mmHg 92%
01:00 +14°C° 0.6 mm 3 mps 749 mmHg 93%
02:00 +13°C° 0.6 mm 4 mps 749 mmHg 93%
03:00 +13°C° 0.3 mm 4 mps 749 mmHg 93%
04:00 +13°C° 0.3 mm 3 mps 749 mmHg 93%
05:00 +12°C° 0.3 mm 3 mps 749 mmHg 93%
06:00 +12°C° 0.3 mm 3 mps 749 mmHg 94%
07:00 +12°C° 0.3 mm 3 mps 749 mmHg 94%
08:00 +12°C° 0.3 mm 3 mps 750 mmHg 95%
09:00 +13°C° 0.1 mm 3 mps 750 mmHg 94%
10:00 +13°C° 0.1 mm 4 mps 750 mmHg 93%
11:00 +13°C° 0.1 mm 4 mps 750 mmHg 93%
12:00 +13°C° 0.1 mm 4 mps 750 mmHg 92%
13:00 +13°C° 0.1 mm 4 mps 750 mmHg 91%
14:00 +13°C° 0.1 mm 5 mps 750 mmHg 89%
15:00 +13°C° 0.2 mm 5 mps 749 mmHg 91%
16:00 +12°C° 0.2 mm 5 mps 749 mmHg 92%
17:00 +11°C° 0.2 mm 6 mps 749 mmHg 93%
18:00 +10°C° 0.8 mm 5 mps 749 mmHg 93%
19:00 +10°C° 0.8 mm 5 mps 749 mmHg 94%
20:00 +9°C° 0.8 mm 5 mps 749 mmHg 95%
21:00 +10°C° 0.3 mm 4 mps 749 mmHg 94%
22:00 +10°C° 0.3 mm 4 mps 749 mmHg 94%
23:00 +10°C° 0.3 mm 3 mps 749 mmHg 93%

13 July, Monday

Time Temperature Precipitation Wind Pressure Humidity
00:00 +10°C° 0.3 mm 3 mps 749 mmHg 93%
01:00 +10°C° 0.3 mm 2 mps 748 mmHg 93%
02:00 +9°C° 0.3 mm 2 mps 748 mmHg 94%
03:00 +10°C° 0.1 mm 2 mps 748 mmHg 94%
04:00 +10°C° 0.1 mm 3 mps 748 mmHg 95%
05:00 +10°C° 0.1 mm 3 mps 748 mmHg 96%
06:00 +11°C° 0 mm 3 mps 748 mmHg 93%
07:00 +12°C° 0 mm 4 mps 748 mmHg 91%
08:00 +13°C° 0 mm 4 mps 748 mmHg 88%
09:00 +14°C° 0 mm 4 mps 748 mmHg 81%
10:00 +17°C° 0 mm 4 mps 748 mmHg 75%
11:00 +18°C° 0 mm 4 mps 748 mmHg 68%
12:00 +19°C° 0.1 mm 4 mps 747 mmHg 66%
13:00 +19°C° 0.1 mm 4 mps 747 mmHg 64%
14:00 +20°C° 0.1 mm 4 mps 747 mmHg 62%
15:00 +20°C° 0.2 mm 4 mps 747 mmHg 66%
16:00 +19°C° 0.2 mm 4 mps 746 mmHg 70%
17:00 +19°C° 0.2 mm 3 mps 746 mmHg 74%
18:00 +17°C° 0.1 mm 3 mps 746 mmHg 78%
19:00 +16°C° 0.1 mm 3 mps 746 mmHg 81%
20:00 +14°C° 0.1 mm 3 mps 746 mmHg 85%
21:00 +13°C° 0 mm 3 mps 746 mmHg 86%
22:00 +12°C° 0 mm 3 mps 746 mmHg 87%
23:00 +11°C° 0 mm 3 mps 746 mmHg 89%

14 July, Tuesday

Time Temperature Precipitation Wind Pressure Humidity
00:00 +11°C° 0 mm 3 mps 746 mmHg 89%
01:00 +11°C° 0 mm 3 mps 746 mmHg 90%
02:00 +10°C° 0 mm 3 mps 746 mmHg 90%
03:00 +10°C° 0 mm 3 mps 746 mmHg 90%
04:00 +10°C° 0 mm 3 mps 746 mmHg 89%
05:00 +10°C° 0 mm 3 mps 746 mmHg 89%
06:00 +12°C° 0 mm 4 mps 746 mmHg 83%
07:00 +14°C° 0 mm 4 mps 746 mmHg 77%
08:00 +17°C° 0 mm 4 mps 746 mmHg 71%
09:00 +18°C° 0 mm 4 mps 746 mmHg 67%
10:00 +19°C° 0 mm 4 mps 746 mmHg 63%
11:00 +20°C° 0 mm 5 mps 746 mmHg 59%
12:00 +20°C° 0.3 mm 5 mps 746 mmHg 60%
13:00 +21°C° 0.3 mm 5 mps 746 mmHg 62%
14:00 +21°C° 0.3 mm 5 mps 746 mmHg 63%
15:00 +21°C° 0.2 mm 5 mps 746 mmHg 63%
16:00 +20°C° 0.2 mm 4 mps 746 mmHg 63%
17:00 +20°C° 0.2 mm 4 mps 745 mmHg 63%
18:00 +19°C° 0 mm 4 mps 746 mmHg 67%
19:00 +17°C° 0 mm 4 mps 746 mmHg 71%
20:00 +14°C° 0 mm 3 mps 746 mmHg 75%
21:00 +13°C° 0 mm 3 mps 746 mmHg 75%
22:00 +12°C° 0 mm 3 mps 746 mmHg 76%
23:00 +11°C° 0 mm 3 mps 747 mmHg 76%

15 July, Wednesday

Time Temperature Precipitation Wind Pressure Humidity
00:00 +11°C° 0 mm 3 mps 747 mmHg 77%
01:00 +10°C° 0 mm 3 mps 747 mmHg 79%
02:00 +10°C° 0 mm 2 mps 747 mmHg 80%
03:00 +10°C° 0 mm 2 mps 747 mmHg 81%
04:00 +10°C° 0 mm 2 mps 747 mmHg 82%
05:00 +10°C° 0 mm 2 mps 748 mmHg 83%
06:00 +13°C° 0 mm 2 mps 748 mmHg 77%
07:00 +15°C° 0 mm 2 mps 748 mmHg 72%
08:00 +17°C° 0 mm 2 mps 748 mmHg 67%
09:00 +18°C° 0 mm 3 mps 748 mmHg 63%
10:00 +20°C° 0 mm 3 mps 748 mmHg 59%
11:00 +21°C° 0 mm 3 mps 748 mmHg 55%
12:00 +21°C° 0 mm 3 mps 748 mmHg 54%
13:00 +22°C° 0 mm 3 mps 748 mmHg 53%
14:00 +22°C° 0 mm 3 mps 748 mmHg 52%
15:00 +22°C° 0 mm 3 mps 748 mmHg 54%
16:00 +22°C° 0 mm 3 mps 748 mmHg 55%
17:00 +23°C° 0 mm 2 mps 748 mmHg 56%
18:00 +20°C° 0 mm 2 mps 748 mmHg 63%
19:00 +18°C° 0 mm 2 mps 748 mmHg 70%
20:00 +18°C° 0 mm 1 mps 748 mmHg 77%
21:00 +16°C° 0 mm 1 mps 748 mmHg 80%
22:00 +15°C° 0 mm 1 mps 749 mmHg 82%
23:00 +14°C° 0 mm 1 mps 749 mmHg 84%
Show more